Regional Weather Roundup
Issued by NWS Little Rock, AR

Home | Current Version | Previous Version | Graphics & Text | Print | Product List | Glossary On
Versions: 1 2 3 4 5 6 7 8 9 10 11 12 13 14 15 16 17 18 19 20 21 22 23 24 25 26 27 28 29 30 31 32 33 34 35 36 37 38 39 40 41 42 43 44 45 46 47 48 49 50
000
ASUS44 KLZK 270805
RWRLZK

WEATHER ROUNDUP FOR ARKANSAS
NATIONAL WEATHER SERVICE LITTLE ROCK AR
200 AM CST MON FEB 27 2017

NOTE: "FAIR" INDICATES FEW OR NO CLOUDS BELOW 12,000 FEET WITH NO
SIGNIFICANT WEATHER AND/OR OBSTRUCTIONS TO VISIBILITY.

ARZ001-003-010-029-270900-
NORTHWEST ARKANSAS

CITY           SKY/WX    TMP DP  RH WIND       PRES   REMARKS
FAYETTEVILLE   CLEAR     32  29  88 CALM      30.00F
FORT SMITH     PTCLDY    46  34  62 E6        30.01R
HARRISON       CLEAR     38  29  70 SE3       30.02S
BENTONVILLE    CLEAR     39  28  65 CALM      30.00S
ROGERS         PTCLDY    40  32  73 E8        30.00F
SILOAM SPGS    CLEAR     39  28  65 E6        29.99S
HIGHFILL       PTCLDY    36  29  75 CALM      29.99F
$$

ARZ004-005-016-270900-
NORTH CENTRAL ARKANSAS

CITY           SKY/WX    TMP DP  RH WIND       PRES   REMARKS
BATESVILLE     CLOUDY    45  41  87 CALM      30.07S
FLIPPIN        CLEAR     45  27  49 CALM      30.02S
MTN HOME       CLEAR     40  29  64 E5        30.03S
$$

ARZ040-041-270900-
WEST CENTRAL ARKANSAS

CITY           SKY/WX    TMP DP  RH WIND       PRES   REMARKS
MENA           CLOUDY    50  45  81 CALM      30.01S
MOUNT IDA      CLOUDY    46  45  96 CALM      30.00R
$$

ARZ009-017-025-026-028-270900-
NORTHEAST ARKANSAS

CITY           SKY/WX    TMP DP  RH WIND       PRES   REMARKS
CORNING        CLOUDY    46  45  93 E3        30.09R
JONESBORO      CLOUDY    48  44  86 SE15      30.04F
NEWPORT        MOCLDY    47  44  90 MISG      30.07R
WALNUT RIDGE   CLOUDY    48  39  71 E5        30.08R
BLYTHEVILLE    LGT RAIN  48  45  89 SE8       30.11F
$$

ARZ022-023-033-042-044-270900-
CENTRAL ARKANSAS

CITY           SKY/WX    TMP DP  RH WIND       PRES   REMARKS
LITTLE ROCK    CLOUDY    47  47 100 N7        30.03S
N LITTLE ROCK    N/A     46  44  95 CALM      30.04F
JACKSONVILLE   CLOUDY    47  47  99 NW6       30.03R
SEARCY         MOCLDY    46  46 100 N5        30.07R
HOT SPRINGS    CLOUDY    48  47  96 NE3       30.02R
RUSSELLVILLE   PTCLDY    47  38  71 CALM      30.02F
CLINTON        CLOUDY    46  41  81 CALM      30.05F
$$

ARZ036-270900-
EAST ARKANSAS

CITY           SKY/WX    TMP DP  RH WIND       PRES   REMARKS
WEST MEMPHIS   LGT RAIN  48  46  93 SE7       30.09F
$$

ARZ050-053-066-070-073-270900-
SOUTHWEST ARKANSAS

CITY           SKY/WX    TMP DP  RH WIND       PRES   REMARKS
ARKADELPHIA    LGT RAIN  49  48  97 NE3       30.02S
CAMDEN         LGT RAIN  48  46  93 SE5       30.03F
TEXARKANA      LGT RAIN  51  51 100 SE3       29.97F
EL DORADO      RAIN      49  49 100 N13       30.05R FOG
DE QUEEN       CLOUDY    50  50 100 E3        29.97S
$$

ARZ056-057-069-270900-
SOUTHEAST ARKANSAS

CITY           SKY/WX    TMP DP  RH WIND       PRES   REMARKS
PINE BLUFF     RAIN      48  47  96 SE12      30.04F
STUTTGART      CLOUDY    50  39  66 SE15      30.04F
MONTICELLO     RAIN      49  47  93 VRB6      30.04S FOG

$$





USA.gov is the U.S. government's official web portal to all federal, state and local government web resources and services.